TimeCST,TemperatureF,Dew PointF,Humidity,Sea Level PressureIn,VisibilityMPH,Wind Direction,Wind SpeedMPH,Gust SpeedMPH,PrecipitationIn,Events,Conditions,WindDirDegrees,DateUTC
2:55 AM,51,44,70,30.06,6,NE,2.2,,,,Clear,50,2012-11-23 08:55:00
5:50 AM,47,42,75,30.13,6,ENE,2.2,,,,Clear,70,2012-11-23 11:50:00
6:18 AM,42.8,39.2,87,30.09,8.0,North,6.9,-,N/A,,Clear,360,2012-11-23 12:18:00
6:46 AM,41.0,39.2,93,30.30,8.0,North,2.3,-,N/A,,Clear,350,2012-11-23 12:46:00
7:44 AM,-9999,-9999,N/A,30.31,7.0,NNE,4.6,-,N/A,,Clear,20,2012-11-23 13:44:00
8:30 AM,56,44,53,30.21,12,NE,2.2,,,,Partly Cloudy,40,2012-11-23 14:30:00
8:48 AM,55.4,44.6,67,30.10,7.0,NNE,3.5,-,N/A,,Clear,20,2012-11-23 14:48:00
9:49 AM,64.4,46.4,52,30.32,7.0,North,8.1,-,N/A,,Clear,350,2012-11-23 15:49:00
10:40 AM,68.0,41.0,37,30.30,7.0,North,6.9,-,N/A,,Clear,360,2012-11-23 16:40:00
11:30 AM,75,43,21,30.14,12,SW,4.5,,,,Partly Cloudy,220,2012-11-23 17:30:00
11:56 AM,69.8,41.0,35,30.02,8.0,NNW,8.1,-,N/A,,Clear,330,2012-11-23 17:56:00
12:45 PM,71.6,39.2,31,30.23,7.0,North,5.8,-,N/A,,Clear,10,2012-11-23 18:45:00
1:45 PM,75.2,41.0,29,30.19,12.0,NNW,6.9,-,N/A,,Clear,340,2012-11-23 19:45:00
2:45 PM,75.2,39.2,27,29.94,12.0,NNW,5.8,-,N/A,,Clear,330,2012-11-23 20:45:00
3:45 PM,73.4,48.2,41,30.15,12.0,NW,15.0,-,N/A,,Partly Cloudy,320,2012-11-23 21:45:00
4:45 PM,71.6,46.4,41,30.17,12.0,NW,16.1,-,N/A,,Mostly Cloudy,320,2012-11-23 22:45:00
5:45 PM,68.0,46.4,46,29.99,12.0,NW,9.2,-,N/A,,Mostly Cloudy,310,2012-11-23 23:45:00
5:50 PM,68,45,33,29.94,9,NNW,11.2,,,,Haze,340,2012-11-23 23:50:00
6:45 PM,64.4,44.6,49,30.23,10.0,NNE,11.5,-,N/A,,Scattered Clouds,20,2012-11-24 00:45:00
7:45 PM,62.6,44.6,52,30.27,10.0,Calm,Calm,-,N/A,,Scattered Clouds,0,2012-11-24 01:45:00
8:45 PM,60.8,44.6,55,30.09,8.0,WNW,5.8,-,N/A,,Mostly Cloudy,300,2012-11-24 02:45:00
8:50 PM,63,44,38,29.99,9,NW,2.2,,,,,310,2012-11-24 02:50:00
9:45 PM,59.0,46.4,63,30.31,8.0,NW,9.2,-,N/A,,Scattered Clouds,310,2012-11-24 03:45:00
11:45 PM,57,46,56,30.04,9,ENE,2.2,,,,,70,2012-11-24 05:45:00